NOAA 16 DEB, 41265

Orbit data source: Space-Track

NOAA 16 DEB, 41265 is space debris in SSO originally from a launch on Thu, 21 Sep 2000 UTC launched from the Air Force Western Test Range (AFWTR). Debris objects in space refer to the collection of defunct objects orbiting the Earth. Examples of debris include non-operational satellites, rocket bodies, and fragments generated from explosions, collisions, or faulty payload assembly.

Loading next visibility...
Identifier
41265, 2000-055FR
Orbit
SSO
Country
Flag of USUS
Related business
Manufacturer
Unknown
Mission
Spacecraft
Bus & Motor
Unknown
Mass
Unknown
Launch date (UTC)
2000-09-21 (26 years ago)
Launch vehicle
Unknown
Launch site
Air Force Western Test Range (AFWTR)
Object type
Payload
Rocket body
Debris
Shape & HBR
Unknown shape, 0.1 m
Radar Cross Section
Medium (>0.1 m² and <1 m²)

Expand to show TLE details & history
Last TLE update: 1 day ago

TLE from 1 day ago
0 NOAA 16 DEB
1 41265U 00055FR  26193.26133160  .00002136  00000-0  91637-3 0  9992
2 41265  98.6349 197.4777 0031645 100.6049 259.8698 14.25553100543566
Epoch: 2026-07-12T06:16Z
TLE epoch observation values (Epoch: 2026-07-12T06:16:19.050Z)
Latitude
0.00003°
Longitude
173.23559°
Altitude
813.628 km
Speed
7.444 km/s
True Right ascension
13h 09m 54s
True Declination
0° 00' 00"
Sunlit
Object was in daylight at epoch
Visualization orbit readout
Latitude
Unknown
Longitude
Unknown
Altitude
Unknown
Speed
Unknown
Apparent Right ascension
Unknown
Apparent Declination
Unknown
Sunlit
N/A
Visualization observer readout
Local Sidereal Time
22:21:20
Azimuth
Unknown
Elevation
Unknown
Doppler factor
Unknown
Orbital elements
Apogee altitude
826.508 km
Perigee altitude
781.054 km
Semi-major axis
7,181.918 km
Eccentricity
0.00316
Inclination
98.6349°
RAAN
197.4777°
Arg. of periapsis
100.6049°
True anomaly
259.51308°
Mean anomaly
259.8698°
Eccentric anomaly
259.69141°
Mean motion
3.56601 °/min
Orbital period
100.95 mins
BSTAR
0.00091637
Loading maneuver chart data...
Computing Atmospheric mass density...
Loading historical data...
Loading historical data...
Loading historical data...
Loading historical data...
Loading historical data...
Loading historical data...
Loading historical data...

Documentation

Showing up to 5 results
|